ROMMA est une association bénévole à but non lucratif. Votre soutien est indispensable : ADHERER à ROMMA ou FAIRE un DON

Chambon - (38, Isère)

Oisans (2460 m)   Longitude: 06° 10' 42" E   Latitude: 45° 01' 32" N Station partenaire n°803
 

Détail journalier du     <<     >>

Température Humidité Vent Dir Rafale Dir. rafale Neige 1 Neige 2
Heure (°C) (%) (km/h) (km/h) (cm) (cm)
01:00 7.0576SO13SO60
02:00 7.15811SO19SO60
03:00 7.73713SO19SO50
04:00 7.34110SSO18SSO30
05:00 7.5559SO15OSO30
06:00 7.85110SO16OSO40
07:00 7.25312OSO20OSO20
08:00 7.16311SO20OSO20
09:00 8.75710SO21SO40
10:00 8.3648OSO18OSO20
11:00 8.17511O21O30
12:00 7.97714O25O20
13:00 9.07313OSO24O30
14:00 10.16814OSO28OSO20
15:00 9.87516OSO30OSO20
16:00 9.27916OSO34O10
17:00 9.97117OSO35OSO10
18:00 9.66823OSO38OSO10
19:00 8.67421SO36OSO10
20:00 8.07520SO31SO00
21:00 6.48217SO30SO20
22:00 5.29614SO26SO30
23:00 4.8976OSO14OSO40
minuit 4.5982ENE7ENE40

Graphique du 15-08-2019

 

Serveur OMMA